Lake Charles Regional, LA

10:30 PM CDT on September 22, 2017 (GMT -0500)
Lake Charles Regional

Weather History for KLCH - April, 2013

Change the Weather History Date:

Tuesday, April 2, 2013

  Actual Average Record
Temperature  
Mean Temperature 68 °F 65 °F  
Max Temperature 77 °F 75 °F 86 °F (1897)
Min Temperature 58 °F 55 °F 36 °F (1915)
Degree Days  
Heating Degree Days 0 3  
Month to date heating degree days 0 6  
Since 1 July heating degree days 1182 1450  
Cooling Degree Days 3 3  
Month to date cooling degree days 5 6  
Year to date cooling degree days 66 78  
Growing Degree Days 17 (Base 50)    
Moisture  
Dew Point 58 °F    
Average Humidity 75    
Maximum Humidity 97    
Minimum Humidity 53    
Precipitation  
Precipitation 1.08 in 0.11 in 1.76 in (2000)
Month to date precipitation 1.08 0.21  
Year to date precipitation 19.84 12.56  
Snow  
Snow 0.00 in 0.00 in 0.00 in ()
Month to date snowfall 0.0 0.0  
Since 1 July snowfall 0.0 0.1  
Snow Depth 0.00 in    
Sea Level Pressure  
Sea Level Pressure 30.02 in    
Wind  
Wind Speed 8 mph (East)    
Max Wind Speed 21 mph    
Max Gust Speed 25 mph    
Visibility 6 miles    
Events Fog    
T = Trace of Precipitation, MM = Missing Value Source: NWS Daily Summary

Daily Weather History Graph

Daily Weather History Graph

Search for Another Location

Airport or City:

Trip Planner

Search our weather history database for the weather conditions in past years. The results will help you decide how hot, cold, wet, or windy it might be!

Date:

Astronomy

Apr. 02, 2013 Rise Set
Actual Time 7:00 AM CDT 7:32 PM CDT
Civil Twilight 6:36 AM CDT 7:56 PM CDT
Nautical Twilight 6:08 AM CDT 8:24 PM CDT
Astronomical Twilight 5:39 AM CDT 8:53 PM CDT
Moon 1:20 AM CDT (4/2) 12:09 PM CDT (4/2)
Length of Visible Light 13h 20m
Length of Day
12h 31m
Waning Gibbous, 55% of the Moon is Illuminated
Apr 2
Waning Gibbous
Apr 2
Last Quarter
Apr 10
New
Apr 18
First Quarter
Apr 25
Full

Hourly Weather History & Observations

Time (CDT) Temp. Dew Point Humidity Pressure Visibility Wind Dir Wind Speed Gust Speed Precip Events Conditions
12:41 AM 60.8 °F 57.2 °F 88% 30.03 in 1.5 mi NE 5.8 mph - N/A   Partly Cloudy
12:44 AM 60.8 °F 57.2 °F 88% 30.03 in 0.8 mi NE 4.6 mph - N/A   Mist
12:51 AM 60.8 °F 57.2 °F 88% 30.03 in 1.2 mi NE 5.8 mph - N/A   Partly Cloudy
12:53 AM 61.0 °F 57.9 °F 90% 30.05 in 2.5 mi NE 6.9 mph - N/A   Partly Cloudy
1:33 AM 60.8 °F 57.2 °F 88% 30.03 in 5.0 mi Calm Calm - N/A   Clear
1:53 AM 61.0 °F 59.0 °F 93% 30.05 in 4.0 mi Calm Calm - N/A   Clear
2:31 AM 59.0 °F 57.2 °F 94% 30.03 in 1.5 mi Calm Calm - N/A   Partly Cloudy
2:33 AM 59.0 °F 57.2 °F 94% 30.03 in 0.8 mi Calm Calm - N/A   Mist
2:46 AM 59.0 °F 57.2 °F 94% 30.03 in 0.2 mi Calm Calm - N/A Fog Fog
2:53 AM 57.9 °F 55.9 °F 93% 30.05 in 0.5 mi Calm Calm - N/A Fog Fog
3:03 AM 59.0 °F 57.2 °F 94% 30.03 in 2.0 mi NE 3.5 mph - N/A   Mostly Cloudy
3:13 AM 57.2 °F 55.4 °F 94% 30.02 in 1.0 mi NE 4.6 mph - N/A   Mist
3:19 AM 57.2 °F 55.4 °F 94% 30.02 in 3.0 mi Calm Calm - N/A   Mostly Cloudy
3:23 AM 59.0 °F 55.4 °F 88% 30.02 in 1.8 mi Calm Calm - N/A   Mostly Cloudy
3:34 AM 60.8 °F 57.2 °F 88% 30.02 in 3.0 mi Calm Calm - N/A   Scattered Clouds
3:53 AM 61.0 °F 59.0 °F 93% 30.04 in 5.0 mi Calm Calm - N/A   Clear
4:12 AM 59.0 °F 57.2 °F 94% 30.01 in 1.5 mi ENE 3.5 mph - N/A   Partly Cloudy
4:20 AM 59.0 °F 57.2 °F 94% 30.01 in 1.0 mi Calm Calm - N/A   Mist
4:24 AM 59.0 °F 57.2 °F 94% 30.01 in 2.0 mi NE 3.5 mph - N/A   Partly Cloudy
4:38 AM 59.0 °F 57.2 °F 94% 30.02 in 5.0 mi Calm Calm - N/A   Partly Cloudy
4:53 AM 59.0 °F 57.0 °F 93% 30.05 in 2.5 mi Calm Calm - N/A   Partly Cloudy
5:04 AM 57.2 °F 55.4 °F 94% 30.03 in 4.0 mi Calm Calm - N/A   Partly Cloudy
5:18 AM 59.0 °F 57.2 °F 94% 30.03 in 1.5 mi Calm Calm - N/A   Partly Cloudy
5:20 AM 59.0 °F 57.2 °F 94% 30.03 in 0.8 mi Calm Calm - N/A   Mist
5:28 AM 59.0 °F 57.2 °F 94% 30.03 in 0.5 mi Calm Calm - N/A Fog Fog
5:32 AM 59.0 °F 57.2 °F 94% 30.03 in 1.2 mi Calm Calm - N/A   Partly Cloudy
5:35 AM 59.0 °F 57.2 °F 94% 30.03 in 3.0 mi Calm Calm - N/A   Partly Cloudy
5:53 AM 59.0 °F 57.0 °F 93% 30.05 in 5.0 mi Calm Calm - N/A   Clear
6:53 AM 57.9 °F 55.9 °F 93% 30.05 in 9.0 mi Calm Calm - N/A   Clear
7:53 AM 61.0 °F 57.9 °F 90% 30.06 in 6.0 mi ENE 10.4 mph - N/A   Clear
8:53 AM 64.9 °F 61.0 °F 87% 30.07 in 10.0 mi East 6.9 mph - N/A   Clear
9:53 AM 70.0 °F 62.1 °F 76% 30.09 in 10.0 mi ESE 13.8 mph - N/A   Clear
10:53 AM 73.9 °F 61.0 °F 64% 30.08 in 10.0 mi ESE 17.3 mph - N/A   Clear
11:53 AM 73.9 °F 57.9 °F 57% 30.08 in 10.0 mi SE 18.4 mph 25.3 mph N/A   Clear
12:53 PM 73.9 °F 57.9 °F 57% 30.06 in 10.0 mi ESE 13.8 mph - N/A   Clear
1:53 PM 75.0 °F 57.9 °F 55% 30.03 in 10.0 mi ESE 15.0 mph - N/A   Clear
2:53 PM 73.9 °F 55.9 °F 53% 30.01 in 10.0 mi SE 10.4 mph - 0.00 in   Overcast
3:53 PM 73.0 °F 57.9 °F 59% 30.01 in 10.0 mi ESE 5.8 mph - 0.00 in   Overcast
4:53 PM 73.0 °F 60.1 °F 64% 30.00 in 10.0 mi ESE 5.8 mph - N/A   Overcast
5:53 PM 73.0 °F 57.9 °F 59% 29.97 in 10.0 mi East 8.1 mph - 0.00 in   Mostly Cloudy
6:53 PM 72.0 °F 57.0 °F 59% 29.95 in 10.0 mi East 12.7 mph - N/A   Clear
7:53 PM 70.0 °F 57.9 °F 65% 29.95 in 10.0 mi East 3.5 mph - N/A   Mostly Cloudy
8:53 PM 69.1 °F 59.0 °F 70% 29.95 in 10.0 mi East 4.6 mph - N/A   Overcast
9:53 PM 68.0 °F 61.0 °F 78% 29.96 in 10.0 mi ESE 5.8 mph - N/A   Overcast
10:53 PM 69.1 °F 59.0 °F 70% 29.93 in 10.0 mi East 12.7 mph - N/A   Scattered Clouds
11:53 PM 69.1 °F 59.0 °F 70% 29.90 in 10.0 mi East 13.8 mph - N/A   Overcast